Regional Weather Roundup
Issued by NWS

Home | Current Version | Previous Version | Text Only | Print | Product List | Glossary Off
Versions: 1 2 3 4 5 6 7 8 9 10 11 12 13 14 15 16 17 18 19 20 21 22 23 24 25 26 27 28 29 30 31 32 33 34 35 36 37 38 39 40 41 42 43 44 45 46 47 48 49 50

000
ASUS45 KSLC 221610
RWRUT

UTAH REGIONAL WEATHER ROUNDUP
NATIONAL WEATHER SERVICE SALT LAKE CITY UT
1000 AM MDT MON SEP 22 2014

UTZ001>011-023>025-221700-

NORTHERN UTAH

CITY           SKY/WX    TMP DP  RH WIND       PRES   REMARKS
HILL AFB       MOSUNNY   64  56  74 E5        30.20R
LOGAN          CLOUDY    57  56  96 N5        30.18S
OGDEN          MOSUNNY   65  57  75 SE5       30.18R
PROVO AIRPORT  NOT AVBL
SALT LAKE CITY MOSUNNY   66  54  65 S5        30.17R
VERNAL         CLOUDY    58  53  84 CALM      30.26R
WENDOVER       SUNNY     59  52  77 E3        30.18R
HEBER CITY     MOSUNNY   54  52  94 CALM      30.24F
WEST JORDAN    SUNNY     66  54  63 SE12      30.19R

$$

UTZ012>022-026-027-221700-

SOUTHERN UTAH

CITY           SKY/WX    TMP DP  RH WIND       PRES   REMARKS
BRYCE CANYON   SUNNY     58  50  75 CALM      30.39R
CEDAR CITY     SUNNY     61  55  81 CALM      30.25R
MILFORD        SUNNY     63  55  75 S15       30.21R
MOAB/CYNLANDS  MOSUNNY   65  57  75 SE6       30.20S
PRICE          MOSUNNY   60  54  80 SE3       30.28R
ST GEORGE      MOSUNNY   70  54  56 SE3       30.15R
KANAB            N/A     64  54  68 CALM      30.28R

$$

REGIONAL REPORTS     COLORADO/ARIZONA

CITY           SKY/WX    TMP DP  RH WIND       PRES   REMARKS
CRAIG, CO      CLOUDY    56  52  86 SW3       30.31F
GRAND JUNCTION LGT RAIN  61  59  93 NW3       30.24S
RIFLE          PTSUNNY   60  54  80 W3        30.27S
MONTROSE       MOSUNNY   63  59  87 CALM      30.30S
CORTEZ         MOSUNNY   66  58  75 VRB6      30.32S
PAGE, AZ       SUNNY     73  55  53 CALM      30.21R
GRAND CANYON   SUNNY     67  39  35 VRB6      30.36R
KINGMAN        SUNNY     80  44  27 NE7       30.13R
FLAGSTAFF      PTSUNNY   63  47  55 E3        30.38R

$$

REGIONAL REPORTS    NEVADA/IDAHO/WYOMING

CITY           SKY/WX    TMP DP  RH WIND       PRES   REMARKS
LAS VEGAS, NV  SUNNY     80  51  36 CALM      30.02R
ELY            SUNNY     56  49  77 CALM      30.27R
ELKO           SUNNY     57  44  62 CALM      30.20R
POCATELLO, ID  MOSUNNY   61  57  87 NW5       30.16R
BURLEY         CLOUDY    62  54  74 SW5       30.13R
EVANSTON, WY   SUNNY     54  49  83 SW12      30.30R
ROCK SPRINGS   FOG       50  50 100 W3        30.29R VSB 1/4

$$



USA.gov is the U.S. government's official web portal to all federal, state and local government web resources and services.